Location: Neuvy Saint Sepulchre
(46.5953°N, 1.8122°E)
Time: 11:52:08
(UTC+02:00)

ISS - Pass Details

Date: 23 April 2026
Orbit: 415 x 424 km, 51.6° (Epoch: 14 April)

Event Time Altitude Azimuth Distance (km) Brightness Sun altitude
Exits shadow 04:42:46 31° 140° (SE) 756 -2.6 -19.5°
Drops below altitude 10° 04:45:46 10° 78° (ENE) 1,501 -0.1 -19.2°
Sets 04:48:00 0° 68° (ENE) 2,371 1.3 -18.9°
